Voltar ao catálogo

LANDSAT 2

AtivoCiênciaSSO
NORAD 7615·PAYLOAD·🇺🇸 United States

Lançado Jan 22, 1975 de Vandenberg Space Force Base

Loading…

Próximas Passagens (próximas 24 horas)

TLE

AtualizadoSource: Space-Track

Época: Sep 14, 2026, 06:11 UTC

1 07615U 75004A   26257.25819033 -.00000189  00000-0 -10395-3 0  9999
2 07615  99.0499 210.9736 0009507  67.9843 292.2328 13.96983705631567

Acompanhe LANDSAT 2 em tempo real com AllMySat

Download on the App Store